This is the latest recevied weather packets stored in our database for station/object N5COP-13. If no packets are shown the sender has not sent any weather packets the latest 10 day(s).
| Time | Temp. | Humidity | Pressure | Rain* | Wind** | Luminosity | Snow |
|---|---|---|---|---|---|---|---|
| 1777915864 | 27.22° C | 25% | 1009.8 hPa | 0 mm | - | 485 W/m² | - |
| 1777915560 | 27.22° C | 27% | 1009.7 hPa | 0 mm | - | 440 W/m² | - |
| 1777915256 | 26.67° C | 27% | 1009.9 hPa | 0 mm | - | 406 W/m² | - |
| 1777914953 | 27.22° C | 27% | 1009.8 hPa | 0 mm | - | 473 W/m² | - |
| 1777914650 | 26.67° C | 28% | 1009.9 hPa | 0 mm | - | 607 W/m² | - |
| 1777914346 | 26.67° C | 29% | 1009.9 hPa | 0 mm | - | 583 W/m² | - |
| 1777914044 | 26.67° C | 29% | 1010.1 hPa | 0 mm | - | 581 W/m² | - |
| 1777913739 | 26.67° C | 29% | 1010.3 hPa | 0 mm | - | 526 W/m² | - |
| 1777913436 | 26.67° C | 29% | 1010.1 hPa | 0 mm | - | 522 W/m² | - |
| 1777913133 | 26.67° C | 29% | 1010.3 hPa | 0 mm | - | 520 W/m² | - |
| 1777912829 | 26.11° C | 29% | 1010.2 hPa | 0 mm | - | 543 W/m² | - |
| 1777912526 | 26.11° C | 29% | 1010.4 hPa | 0 mm | - | 555 W/m² | - |
| 1777912222 | 26.11° C | 29% | 1010.4 hPa | 0 mm | - | 534 W/m² | - |
| 1777911919 | 26.11° C | 28% | 1010.3 hPa | 0 mm | - | 596 W/m² | - |
| 1777911615 | 25.56° C | 28% | 1010.3 hPa | 0 mm | - | 377 W/m² | - |
| 1777911311 | 25.56° C | 27% | 1010.3 hPa | 0 mm | - | 380 W/m² | - |
| 1777911009 | 25.56° C | 27% | 1010.2 hPa | 0 mm | - | 413 W/m² | - |
| 1777910706 | 25.56° C | 28% | 1010.3 hPa | 0 mm | - | 433 W/m² | - |
| 1777910403 | 25.56° C | 28% | 1010.3 hPa | 0 mm | - | 412 W/m² | - |
| 1777910099 | 25.56° C | 30% | 1010.4 hPa | 0 mm | - | 433 W/m² | - |
| 1777909797 | 25° C | 31% | 1010.6 hPa | 0 mm | - | 483 W/m² | - |
| 1777909493 | 25° C | 32% | 1010.3 hPa | 0 mm | - | 452 W/m² | - |
| 1777909191 | 25° C | 33% | 1010.4 hPa | 0 mm | - | 490 W/m² | - |
| 1777908889 | 24.44° C | 33% | 1010.4 hPa | 0 mm | - | 489 W/m² | - |
| 1777908586 | 24.44° C | 34% | 1010.6 hPa | 0 mm | - | 480 W/m² | - |
* Rain latest hour (hover to see other rain measurements)
** Current wind speed in m/s (hover to see current wind gust speed)